This is the latest recevied weather packets stored in our database for station/object W8MAL. If no packets are shown the sender has not sent any weather packets the latest 1 day(s).
| Time | Temp. | Humidity | Pressure | Rain* | Wind** | Luminosity | Snow |
|---|---|---|---|---|---|---|---|
| 1778055642 | 6.67° C | 96% | 1007.8 hPa | 0.25 mm | - | 0 W/m² | - |
| 1778054130 | 7.22° C | 96% | 1007.8 hPa | 0.51 mm | - | 0 W/m² | - |
| 1778053524 | 6.67° C | 93% | 1008.5 hPa | 0.51 mm | - | 0 W/m² | - |
| 1778053221 | 6.67° C | 92% | 1008.5 hPa | 0.25 mm | - | 0 W/m² | - |
| 1778052919 | 6.67° C | 95% | 1008.5 hPa | 0.25 mm | - | 0 W/m² | - |
| 1778052616 | 7.22° C | 95% | 1008.5 hPa | 0.25 mm | - | 0 W/m² | - |
| 1778052313 | 7.22° C | 95% | 1008.5 hPa | 0 mm | - | 0 W/m² | - |
| 1778050799 | 7.22° C | 94% | 1007.5 hPa | 0.51 mm | - | 0 W/m² | - |
| 1778050497 | 7.22° C | 96% | 1007.5 hPa | 0.51 mm | - | 0 W/m² | - |
| 1778049586 | 7.22° C | 96% | 1008.2 hPa | 0.25 mm | - | 0 W/m² | - |
| 1778049284 | 7.78° C | 96% | 1008.2 hPa | 0.25 mm | - | 0 W/m² | - |
| 1778048375 | 7.22° C | 95% | 1008.2 hPa | 0 mm | - | 0 W/m² | - |
| 1778048072 | 7.22° C | 93% | 1008.2 hPa | 0 mm | - | 0 W/m² | - |
| 1778047468 | 7.78° C | 92% | 1008.2 hPa | 0 mm | - | 0 W/m² | - |
| 1778047165 | 7.78° C | 92% | 1008.2 hPa | 1.27 mm | - | 0 W/m² | - |
| 1778046862 | 7.78° C | 93% | 1008.2 hPa | 1.27 mm | - | 0 W/m² | - |
| 1778045951 | 7.78° C | 97% | 1008.2 hPa | 1.27 mm | - | 0 W/m² | - |
| 1778045650 | 8.33° C | 98% | 1008.2 hPa | 1.02 mm | - | 0 W/m² | - |
| 1778044744 | 8.33° C | 99% | 1008.5 hPa | 0.51 mm | - | 0 W/m² | - |
| 1778044440 | 8.33° C | 99% | 1008.2 hPa | 0.25 mm | - | 0 W/m² | - |
| 1778044137 | 8.33° C | 99% | 1008.2 hPa | 0.25 mm | - | 0 W/m² | - |
| 1778043835 | 8.33° C | 99% | 1008.2 hPa | 0.25 mm | - | 0 W/m² | - |
| 1778043532 | 8.89° C | 99% | 1008.2 hPa | 0.51 mm | - | 0 W/m² | - |
| 1778043228 | 8.89° C | 99% | 1008.2 hPa | 0.51 mm | - | 0 W/m² | - |
| 1778042925 | 8.89° C | 99% | 1008.2 hPa | 0.51 mm | - | 0 W/m² | - |
* Rain latest hour (hover to see other rain measurements)
** Current wind speed in m/s (hover to see current wind gust speed)